Location: Dappach
(48.9767°N, 9.6998°E)
Time: 18:29:46
(UTC+00:00)

CSL-04 DEB - Visible Passes

Search period start: 07 October 2024 00:00
Search period end: 17 October 2024 00:00
Orbit: 684 x 1040 km, 99.3° (Epoch: 06 October)

Date Brightness Start Highest point End Pass type
(mag) Time Alt. Az. Time Alt. Az. Time Alt. Az.
07 Oct ? 04:43:35 10° NE 04:47:14 18° E 04:50:41 10° SE visible
07 Oct ? 17:55:00 10° SSW 18:00:43 32° W 18:06:21 10° NNW visible
08 Oct ? 04:35:33 10° NE 04:38:32 15° E 04:41:24 10° ESE visible
08 Oct ? 17:46:13 10° SSW 17:52:08 37° W 17:57:57 10° NNW visible
09 Oct ? 04:27:45 10° ENE 04:29:49 12° E 04:31:50 10° ESE visible
09 Oct ? 17:37:28 10° SSW 17:43:34 42° W 17:49:31 10° NNW visible
10 Oct ? 17:28:46 10° S 17:35:00 48° W 17:41:03 10° NNW visible
11 Oct ? 17:20:06 10° S 17:26:26 55° WSW 17:32:32 10° NNW visible
12 Oct ? 17:11:29 10° S 17:17:53 63° WSW 17:24:01 10° NNW visible
12 Oct ? 18:57:31 10° WSW 18:59:46 12° W 19:01:59 10° WNW visible
13 Oct ? 17:02:53 10° S 17:09:19 72° WSW 17:15:28 10° NNW visible
13 Oct ? 18:47:52 10° WSW 18:51:03 14° W 18:54:12 10° NW visible
14 Oct ? 16:54:19 10° SSE 17:00:45 82° WSW 17:06:52 10° NNW visible
14 Oct ? 18:38:32 10° SW 18:42:22 16° W 18:46:07 10° NW visible
15 Oct ? 18:29:20 10° SW 18:33:40 19° W 18:37:54 10° NW visible
16 Oct ? 05:07:04 10° NE 05:11:16 24° E 05:15:11 10° SSE visible
16 Oct ? 18:20:14 10° SW 18:25:00 22° W 18:29:35 10° NW visible
